User: anonymous   Login
Location: Unspecified
(0.0000°N, 0.0000°E)
Time: 20:07:39
(UTC+02:00)
Language:

Meteor PRIRODA - Orbit

View from above orbital plane
View from above orbital plane
View from above satellite
View from above satellite

Ground track
Ground track

The orbit data is extracted from the following two-line orbital elements,

1 12585U 81065A   16181.04607751  .00000620  00000-0  32302-4 0  9990
2 12585  97.3891 160.6167 0014720 188.2208 212.0600 15.19518888908631
Epoch (UTC): 29 June 2016 01:06:21
Eccentricity: 0.0014720
inclination: 97.3891°
perigee height: 497 km
apogee height: 517 km
right ascension of ascending node: 160.6167°
argument of perigee: 188.2208°
revolutions per day: 15.19518888
mean anomaly at epoch: 212.0600°
orbit number at epoch: 90863

The dashed part of the orbit path shows where the satellite is in the earth's shadow,  

DLR